Location: Balagbag Mahabang Kahoy
(14.1562°N, 120.9200°E)
Time: 04:58:40
(UTC+00:00)

Cosmos 2082 Rocket - Pass Details

Date: 16 January 2026
Orbit: 831 x 853 km, 71.0° (Epoch: 15 February)

Event Time Altitude Azimuth Distance (km) Brightness Sun altitude
Rises 12:36:29 0° 228° (SW) 3,365 6.0 -39.8°
Reaches altitude 10° 12:39:34 10° 245° (WSW) 2,431 5.2 -40.5°
Enters shadow 12:42:33 19° 277° (W) 1,880 4.4 -41.2°
